Hovedside
METAR-TAF:

METAR-TAF

Lufthavner :

Draugen, Norge

Draugenfeltet

breddegrad: 64-21-20N, lengdegrad: 007-47-30E, høyde over havet: 0 m

Gjeldene værobservasjon

Denne rapporten ble laget for 39 minutter siden, klokken 07:50 UTC
Vind 15 kt fra Sørøst
Temperatur 3°C
Luftfuktighet 75%
Trykk 1005 hPa

METAR: ENDR 220750Z AUTO 14015KT 03/M01 Q1005

Tid: 09:29 (08:29 UTC)


TAF: fraværende

Værobservasjoner og værvarsel for over 4000 flyplasser (METAR- og TAF-rapporter).

Tilgjengelige stasjoner er representert av de røde og gule prikkene på kartet.

Hold musepekeren over prikken for å se navnet på stasjonen.

Klikk så for å se værobservasjoner og -varsler.

For å forandre kartet kan du klikke på den grønne knappen med svart kryss for å zoome inn, på den grønne knappen med strek for å zoome ut, eller på de grønne pilene for å se tilstøtende kart.


METAR-TAF: